{"data":{"norad_id":65624,"intl_designator":"2025-210C","name":"STARLINK-35151","alt_names":[],"object_type":"PAYLOAD","status":"ACTIVE","operator":null,"country":"US","launch_date":"2025-09-18","launch_site_code":"AFETR","launch_vehicle":null,"mission":null,"orbit_class":"UNKNOWN","rcs_meters":null,"size_class":null,"mass_kg":null,"dimensions":null,"purposes":["comms"],"wikipedia_slug":null,"has_3d_model":false,"image_url":null,"decayed_at":null,"tle_current":{"epoch":"2026-09-20T21:20:03.541632Z","epoch_age_seconds":78399,"freshness":"FRESH","line1":"1 65624U 25210C   26263.88892988  .00022558  00000+0  67634-3 0  9992","line2":"2 65624  53.1576 114.2416 0002531  89.2507 270.8785 15.34419073 57627","mean_motion":15.34419073,"eccentricity":0.0002531,"inclination_deg":53.1576,"raan_deg":114.2416,"arg_perigee_deg":89.2507,"mean_anomaly_deg":270.8785,"bstar":0.00067634,"rev_number":5762,"period_min":93.846591543248,"perigee_km":460.9151495019,"apogee_km":464.37795413583,"semimajor_km":6840.7835518189,"source":"CELESTRAK","updated_at":"2026-09-21T09:00:35.658799Z"}}}